When you browse on this site, cookies collect data to enhance your experience and personalize the content and advertising you see.
Visit our Privacy Policy to learn more. By continuing to use the site, you agree to this use of cookies and data.
  • In Austria
  • List of Countries
  • For 7 days
  • Water Temperature
  • Satellite Maps
  • Weather Map
  • News
  • Weather Widgets
  • user-avatar
    Login

    Hourly Weather Sevan

    Today, 21 April, Sunday

    Time Temperature Precipitation Wind Pressure Humidity
    00:00 +1°C° 0 mm 2 mps 637 mmHg 69%
    01:00 +1°C° 0.1 mm 2 mps 637 mmHg 70%
    02:00 +1°C° 0.1 mm 2 mps 637 mmHg 70%
    03:00 +2°C° 0 mm 2 mps 637 mmHg 71%
    04:00 +2°C° 0.2 mm 2 mps 637 mmHg 71%
    05:00 +2°C° 0.2 mm 2 mps 637 mmHg 71%
    06:00 +2°C° 0.2 mm 2 mps 637 mmHg 71%
    07:00 +3°C° 0.2 mm 2 mps 637 mmHg 67%
    08:00 +5°C° 0.2 mm 1 mps 637 mmHg 63%
    09:00 +6°C° 0.2 mm 1 mps 638 mmHg 59%
    10:00 +7°C° 0.2 mm 1 mps 638 mmHg 57%
    11:00 +7°C° 0.2 mm 2 mps 638 mmHg 54%
    12:00 +8°C° 0.2 mm 2 mps 638 mmHg 52%
    13:00 +8°C° 0.2 mm 2 mps 637 mmHg 52%
    14:00 +9°C° 0.2 mm 2 mps 637 mmHg 52%
    15:00 +9°C° 0.2 mm 2 mps 637 mmHg 52%
    16:00 +8°C° 0.2 mm 3 mps 637 mmHg 56%
    17:00 +6°C° 0.2 mm 4 mps 637 mmHg 59%
    18:00 +5°C° 0.2 mm 4 mps 636 mmHg 63%
    19:00 +4°C° 0.2 mm 4 mps 637 mmHg 65%
    20:00 +3°C° 0.2 mm 5 mps 637 mmHg 67%
    21:00 +2°C° 0.2 mm 5 mps 637 mmHg 70%
    22:00 +1°C° 0.1 mm 5 mps 637 mmHg 70%
    23:00 +1°C° 0.1 mm 5 mps 638 mmHg 71%

    Tomorrow, 22 April, Monday

    Time Temperature Precipitation Wind Pressure Humidity
    00:00 +1°C° 0.1 mm 4 mps 638 mmHg 71%
    01:00 0°C° 0.1 mm 4 mps 637 mmHg 71%
    02:00 0°C° 0.1 mm 4 mps 637 mmHg 71%
    03:00 0°C° 0.1 mm 4 mps 637 mmHg 71%
    04:00 0°C° 0 mm 4 mps 637 mmHg 71%
    05:00 0°C° 0 mm 4 mps 637 mmHg 71%
    06:00 0°C° 0 mm 4 mps 637 mmHg 70%
    07:00 +1°C° 0 mm 4 mps 638 mmHg 65%
    08:00 +3°C° 0 mm 4 mps 638 mmHg 60%
    09:00 +5°C° 0 mm 3 mps 638 mmHg 55%
    10:00 +5°C° 0.1 mm 3 mps 638 mmHg 54%
    11:00 +7°C° 0.1 mm 3 mps 638 mmHg 52%
    12:00 +8°C° 0.1 mm 3 mps 638 mmHg 50%
    13:00 +7°C° 0.1 mm 4 mps 637 mmHg 51%
    14:00 +7°C° 0.1 mm 4 mps 637 mmHg 52%
    15:00 +7°C° 0.1 mm 4 mps 637 mmHg 52%
    16:00 +6°C° 0.1 mm 4 mps 637 mmHg 55%
    17:00 +5°C° 0.1 mm 4 mps 637 mmHg 58%
    18:00 +4°C° 0.1 mm 4 mps 637 mmHg 61%
    19:00 +4°C° 0.1 mm 4 mps 638 mmHg 63%
    20:00 +3°C° 0.1 mm 4 mps 639 mmHg 66%
    21:00 +2°C° 0.1 mm 3 mps 639 mmHg 68%
    22:00 +2°C° 0.1 mm 3 mps 640 mmHg 70%
    23:00 +1°C° 0.1 mm 3 mps 640 mmHg 71%

    Day after tomorrow, 23 April, Tuesday

    Time Temperature Precipitation Wind Pressure Humidity
    00:00 +2°C° 0.1 mm 2 mps 640 mmHg 72%
    01:00 +2°C° 0 mm 2 mps 640 mmHg 73%
    02:00 +1°C° 0 mm 2 mps 640 mmHg 74%
    03:00 +1°C° 0 mm 2 mps 640 mmHg 75%
    04:00 +1°C° 0 mm 2 mps 641 mmHg 74%
    05:00 +1°C° 0 mm 2 mps 641 mmHg 73%
    06:00 +2°C° 0 mm 1 mps 641 mmHg 72%
    07:00 +4°C° 0.1 mm 1 mps 642 mmHg 66%
    08:00 +5°C° 0.1 mm 1 mps 643 mmHg 61%
    09:00 +7°C° 0.1 mm 1 mps 643 mmHg 55%
    10:00 +7°C° 0.1 mm 1 mps 643 mmHg 54%
    11:00 +8°C° 0.1 mm 1 mps 643 mmHg 52%
    12:00 +8°C° 0.1 mm 2 mps 643 mmHg 51%
    13:00 +9°C° 0.2 mm 1 mps 643 mmHg 52%
    14:00 +9°C° 0.2 mm 1 mps 643 mmHg 52%
    15:00 +9°C° 0.2 mm 1 mps 642 mmHg 52%
    16:00 +9°C° 0.2 mm 1 mps 643 mmHg 55%
    17:00 +8°C° 0.2 mm 1 mps 643 mmHg 58%
    18:00 +8°C° 0.2 mm 1 mps 643 mmHg 61%
    19:00 +7°C° 0.3 mm 1 mps 643 mmHg 64%
    20:00 +7°C° 0.3 mm 1 mps 644 mmHg 67%
    21:00 +6°C° 0.3 mm 1 mps 644 mmHg 70%
    22:00 +6°C° 0.5 mm 1 mps 645 mmHg 71%
    23:00 +5°C° 0.5 mm 1 mps 645 mmHg 72%

    24 April, Wednesday

    Time Temperature Precipitation Wind Pressure Humidity
    00:00 +4°C° 0.5 mm 0 mps 645 mmHg 73%
    01:00 +5°C° 0.3 mm 1 mps 645 mmHg 75%
    02:00 +4°C° 0.3 mm 1 mps 645 mmHg 76%
    03:00 +4°C° 0.3 mm 1 mps 645 mmHg 77%
    04:00 +4°C° 0.1 mm 1 mps 645 mmHg 78%
    05:00 +4°C° 0.1 mm 1 mps 645 mmHg 78%
    06:00 +3°C° 0.1 mm 1 mps 645 mmHg 79%
    07:00 +4°C° 0 mm 1 mps 646 mmHg 74%
    08:00 +5°C° 0 mm 1 mps 646 mmHg 69%
    09:00 +7°C° 0 mm 1 mps 646 mmHg 64%
    10:00 +7°C° 0.1 mm 1 mps 645 mmHg 61%
    11:00 +8°C° 0.1 mm 1 mps 645 mmHg 58%
    12:00 +8°C° 0.1 mm 2 mps 645 mmHg 55%
    13:00 +9°C° 0.1 mm 2 mps 644 mmHg 54%
    14:00 +9°C° 0.1 mm 2 mps 644 mmHg 52%
    15:00 +9°C° 0.1 mm 2 mps 644 mmHg 51%
    16:00 +10°C° 0.1 mm 1 mps 644 mmHg 53%
    17:00 +10°C° 0.1 mm 1 mps 644 mmHg 54%
    18:00 +9°C° 0.1 mm 1 mps 644 mmHg 56%
    19:00 +8°C° 0.1 mm 1 mps 644 mmHg 60%
    20:00 +6°C° 0.1 mm 2 mps 644 mmHg 65%
    21:00 +5°C° 0.1 mm 2 mps 644 mmHg 70%
    22:00 +5°C° 0.1 mm 2 mps 644 mmHg 72%
    23:00 +4°C° 0.1 mm 2 mps 645 mmHg 74%

    25 April, Thursday

    Time Temperature Precipitation Wind Pressure Humidity
    00:00 +4°C° 0.1 mm 2 mps 645 mmHg 76%
    01:00 +5°C° 0 mm 1 mps 645 mmHg 77%
    02:00 +4°C° 0 mm 1 mps 645 mmHg 78%
    03:00 +4°C° 0 mm 1 mps 645 mmHg 79%
    04:00 +4°C° 0 mm 1 mps 645 mmHg 78%
    05:00 +4°C° 0 mm 1 mps 645 mmHg 77%
    06:00 +4°C° 0 mm 1 mps 645 mmHg 77%
    07:00 +5°C° 0 mm 1 mps 645 mmHg 69%
    08:00 +7°C° 0 mm 1 mps 645 mmHg 61%
    09:00 +9°C° 0 mm 1 mps 646 mmHg 53%
    10:00 +10°C° 0 mm 1 mps 646 mmHg 51%
    11:00 +11°C° 0 mm 1 mps 645 mmHg 49%
    12:00 +12°C° 0 mm 1 mps 645 mmHg 47%
    13:00 +12°C° 0.1 mm 1 mps 645 mmHg 47%
    14:00 +12°C° 0.1 mm 2 mps 645 mmHg 48%
    15:00 +13°C° 0.1 mm 2 mps 645 mmHg 49%
    16:00 +12°C° 0.1 mm 2 mps 645 mmHg 51%
    17:00 +10°C° 0.1 mm 2 mps 645 mmHg 54%
    18:00 +10°C° 0.1 mm 2 mps 645 mmHg 57%
    19:00 +8°C° 0 mm 2 mps 645 mmHg 61%
    20:00 +7°C° 0 mm 2 mps 645 mmHg 65%
    21:00 +5°C° 0 mm 2 mps 645 mmHg 68%
    22:00 +5°C° 0 mm 2 mps 645 mmHg 69%
    23:00 +5°C° 0 mm 2 mps 645 mmHg 69%

    26 April, Friday

    Time Temperature Precipitation Wind Pressure Humidity
    00:00 +4°C° 0 mm 2 mps 645 mmHg 70%
    01:00 +4°C° 0 mm 2 mps 645 mmHg 70%
    02:00 +4°C° 0 mm 2 mps 645 mmHg 70%
    03:00 +3°C° 0 mm 2 mps 645 mmHg 70%
    04:00 +3°C° 0 mm 2 mps 645 mmHg 69%
    05:00 +3°C° 0 mm 2 mps 645 mmHg 68%
    06:00 +4°C° 0 mm 2 mps 645 mmHg 68%
    07:00 +6°C° 0 mm 1 mps 645 mmHg 63%
    08:00 +8°C° 0 mm 1 mps 645 mmHg 57%
    09:00 +10°C° 0 mm 1 mps 646 mmHg 52%
    10:00 +11°C° 0 mm 1 mps 646 mmHg 50%
    11:00 +12°C° 0 mm 1 mps 645 mmHg 47%
    12:00 +13°C° 0 mm 1 mps 645 mmHg 45%
    13:00 +13°C° 0 mm 1 mps 645 mmHg 45%
    14:00 +13°C° 0 mm 1 mps 645 mmHg 44%
    15:00 +13°C° 0 mm 1 mps 645 mmHg 44%
    16:00 +13°C° 0 mm 1 mps 644 mmHg 46%
    17:00 +12°C° 0 mm 1 mps 644 mmHg 49%
    18:00 +12°C° 0 mm 1 mps 644 mmHg 51%
    19:00 +10°C° 0 mm 1 mps 644 mmHg 56%
    20:00 +9°C° 0 mm 1 mps 644 mmHg 60%
    21:00 +7°C° 0 mm 1 mps 644 mmHg 65%
    22:00 +7°C° 0 mm 1 mps 644 mmHg 67%
    23:00 +6°C° 0 mm 1 mps 644 mmHg 70%
    Show more